DateTimeUTC,F1_A11,F1_S11,BsB_S11,BsG_S11,BsR_S11,BbsB_S11,BbsG_S11,BbsR_S11,BaB_A11,BaG_A11,BaR_A11,Tu_S11,T_S11,Uu_S11,U_S11,P_S11,T1_A11
2021-06-30T06:00:00Z,00000200,20000000,,,,,,,-000.10,0000.12,0000.24,17.3,24.2,03.2,02.1,0658.1,31.0
2021-06-30T06:01:00Z,00000200,20000000,,,,,,,-000.03,-000.11,-000.08,17.3,24.2,03.2,02.1,0658.1,31.0
2021-06-30T06:02:00Z,00000200,20000000,,,,,,,0000.07,0000.07,0000.05,17.3,24.2,03.2,02.1,0658.1,31.0
2021-06-30T06:03:00Z,00000200,60000000,,,,,,,-000.32,0000.05,0000.21,17.3,24.2,03.2,02.1,0658.1,31.0
2021-06-30T06:04:00Z,00000200,40000000,0000.30,0000.13,0000.37,0000.08,0000.15,0000.15,0000.55,0000.05,-000.18,17.5,24.0,03.2,02.2,0659.1,31.0
2021-06-30T06:05:00Z,00000200,00000000,-000.32,-000.20,0000.15,0000.13,-000.13,0000.03,-000.26,-000.14,-000.17,17.5,24.0,03.3,02.2,0659.2,31.0
2021-06-30T06:06:00Z,00000200,00000000,-000.09,-000.11,0000.37,0000.09,-000.06,0000.10,0000.17,0000.16,-000.10,17.6,24.0,03.2,02.2,0659.2,31.0
2021-06-30T06:07:00Z,00000200,00000000,0000.22,0000.01,-000.04,-000.03,-000.13,-000.18,-000.14,0000.17,0000.15,17.6,24.0,03.2,02.2,0659.2,31.0
2021-06-30T06:08:00Z,00000200,00000000,0000.93,0000.21,-000.04,0000.50,-000.07,-000.11,0000.08,-000.19,0000.20,17.7,24.0,03.3,02.2,0659.2,31.1
2021-06-30T06:09:00Z,00000200,00000000,-000.10,0000.05,0000.24,-000.46,-000.07,0000.15,0000.31,-000.12,0000.16,17.7,24.1,03.2,02.2,0659.3,31.0
2021-06-30T06:10:00Z,00000200,00000000,-000.14,0000.13,0000.01,0000.72,0000.33,-000.17,-000.41,0000.23,-000.43,17.7,24.1,03.4,02.3,0659.3,31.0
2021-06-30T06:11:00Z,00000200,00000000,-000.28,0000.12,0000.19,0000.51,0000.09,-000.03,-000.02,-000.24,0000.11,17.6,24.1,03.3,02.2,0659.3,31.0
2021-06-30T06:12:00Z,00000200,00000000,0000.20,-000.37,0000.01,-000.16,0000.04,-000.06,0000.14,0000.05,-000.07,17.6,24.0,03.3,02.2,0659.3,31.0
2021-06-30T06:13:00Z,00000200,00000000,0000.20,0000.24,-000.02,-000.10,0000.00,0000.23,0000.07,0000.17,0000.09,17.5,24.0,03.3,02.2,0659.3,31.0
2021-06-30T06:14:00Z,00000200,00000000,0000.13,0000.04,0000.17,-000.40,0000.17,0000.09,-000.18,-000.03,0000.09,17.4,23.9,03.3,02.2,0659.3,31.0
2021-06-30T06:15:00Z,00000200,00000000,0000.31,0000.02,0000.28,0000.26,0000.15,0000.13,0000.22,-000.11,-000.17,17.4,23.9,03.3,02.2,0659.2,31.0
2021-06-30T06:16:00Z,00000200,00000000,0000.40,-000.25,0000.14,0000.15,-000.06,0000.19,0000.11,0000.04,0000.08,17.3,23.8,03.3,02.2,0659.2,31.0
2021-06-30T06:17:00Z,00000200,00000000,0000.30,0000.11,0000.00,0000.07,0000.03,-000.07,-000.22,-000.02,0000.23,17.4,23.8,03.4,02.3,0659.3,31.0
2021-06-30T06:18:00Z,00000200,00000000,0000.14,0000.08,0000.66,0000.38,-000.20,0000.04,0000.21,0000.03,-000.13,17.4,23.8,03.2,02.2,0659.3,31.0
2021-06-30T06:19:00Z,00000200,00000000,0000.25,-000.04,0000.48,0000.42,-000.03,0000.04,-000.16,0000.01,-000.04,17.4,23.9,03.3,02.2,0659.3,31.0
2021-06-30T06:20:00Z,00000200,00000000,-000.14,-000.20,0000.52,0000.41,0000.12,0000.10,0000.09,0000.20,-000.02,17.5,23.9,03.3,02.3,0659.4,31.0
2021-06-30T06:21:00Z,00000200,00000000,0000.06,-000.24,0000.31,-000.25,-000.30,-000.02,-000.18,-000.07,0000.38,17.6,23.9,03.4,02.3,0659.3,31.0
2021-06-30T06:22:00Z,00000200,00000000,0000.51,-000.24,0000.11,-000.43,-000.19,-000.13,0000.37,0000.14,0000.20,17.6,23.9,03.3,02.3,0659.3,31.0
2021-06-30T06:23:00Z,00000200,00000000,0000.29,0000.06,0000.33,0000.20,0000.04,-000.17,-000.00,0000.24,-000.42,17.7,24.0,03.3,02.3,0659.4,31.0
2021-06-30T06:24:00Z,00000200,00000000,0000.30,-000.30,0000.20,-000.01,-000.10,0000.04,-000.11,-000.17,0000.11,17.8,24.0,03.3,02.2,0659.5,31.1
2021-06-30T06:25:00Z,00000200,00000000,-000.55,-000.04,0000.08,0000.26,0000.05,0000.09,0000.04,0000.05,-000.10,17.8,24.1,03.3,02.3,0659.5,31.1
2021-06-30T06:26:00Z,00000200,00000000,0000.09,-000.11,-000.04,-000.26,-000.16,-000.08,-000.10,-000.17,0000.10,17.8,24.0,03.4,02.3,0659.4,31.0
2021-06-30T06:27:00Z,00000200,00000000,0000.32,-000.20,0000.37,0000.52,-000.15,0000.09,-000.04,0000.04,-000.01,17.7,24.0,03.3,02.2,0659.4,31.0
2021-06-30T06:28:00Z,00000200,00000000,0000.56,0000.09,0000.49,0000.34,-000.05,0000.15,0000.08,0000.12,-000.23,17.7,24.0,03.3,02.3,0659.4,31.0
2021-06-30T06:29:00Z,00000200,00000000,0000.21,-000.06,0000.13,-000.15,-000.19,-000.18,-000.04,0000.14,0000.04,17.6,24.0,03.3,02.2,0659.4,31.0
2021-06-30T06:30:00Z,00000200,00000000,0000.48,-000.30,0000.45,-000.30,0000.14,0000.18,0000.23,-000.27,0000.14,17.5,23.9,03.4,02.3,0659.5,31.0
2021-06-30T06:31:00Z,00000200,00000000,0001.13,0000.01,0000.03,0000.40,0000.06,-000.22,0000.16,0000.15,0000.03,17.5,23.9,03.4,02.3,0659.5,31.0
2021-06-30T06:32:00Z,00000200,00000000,0000.23,-000.10,0000.30,0000.30,-000.00,0000.16,-000.05,0000.06,0000.17,17.5,23.9,03.4,02.3,0659.5,31.0
2021-06-30T06:33:00Z,00000200,00000000,0000.53,0000.11,-000.06,-000.13,-000.11,0000.13,-000.15,0000.11,-000.05,17.5,23.9,03.4,02.3,0659.4,31.0
2021-06-30T06:34:00Z,00000200,00000000,0000.33,0000.01,0000.30,0000.03,0000.06,-000.04,0000.07,-000.06,-000.01,17.6,23.9,03.4,02.3,0659.4,31.0
2021-06-30T06:35:00Z,00000200,00000000,-000.32,0000.11,-000.22,0000.10,-000.29,-000.23,-000.11,-000.13,-000.19,17.6,23.9,03.4,02.3,0659.3,31.0
2021-06-30T06:36:00Z,00000200,00000000,-000.05,0000.03,0000.40,0000.62,-000.04,-000.17,-000.07,-000.01,0000.19,17.7,24.0,03.4,02.3,0659.3,31.0
2021-06-30T06:37:00Z,00000200,00000000,-000.32,0000.09,0000.12,0000.16,0000.09,0000.12,0000.32,0000.26,0000.13,17.8,24.0,03.3,02.2,0659.4,31.0
2021-06-30T06:38:00Z,00000200,00000000,0000.38,-000.04,0000.00,-000.14,-000.14,-000.18,-000.14,-000.04,-000.02,17.8,24.0,03.4,02.3,0659.5,31.1
2021-06-30T06:39:00Z,00000200,00000000,-000.52,0000.07,0000.36,-000.10,-000.08,0000.05,0000.15,-000.21,-000.09,17.9,24.0,03.3,02.3,0659.6,31.1
2021-06-30T06:40:00Z,00000200,00000000,0000.64,0000.11,-000.02,-000.02,-000.16,0000.06,0000.08,0000.26,0000.06,17.9,24.1,03.4,02.3,0659.7,31.1
2021-06-30T06:41:00Z,00000200,00000000,-000.11,-000.18,-000.04,-000.52,-000.20,-000.14,0000.14,0000.25,-000.02,17.9,24.1,03.4,02.3,0659.7,31.1
2021-06-30T06:42:00Z,00000200,00000000,0000.22,-000.09,-000.14,0000.13,-000.23,-000.12,-000.15,-000.20,-000.22,17.9,24.1,03.4,02.3,0659.6,31.0
2021-06-30T06:43:00Z,00000200,00000000,0001.06,-000.13,0000.07,0000.05,0000.10,-000.17,-000.22,-000.36,-000.09,17.9,24.1,03.4,02.3,0659.4,31.0
2021-06-30T06:44:00Z,00000200,00000000,-000.09,0000.08,-000.04,-000.15,0000.01,-000.08,0000.06,0000.03,0000.04,17.8,24.1,03.4,02.3,0659.4,31.0
2021-06-30T06:45:00Z,00000200,00000000,0000.19,0000.16,0000.19,0000.14,-000.05,-000.00,0000.26,-000.03,0000.10,17.7,24.0,03.4,02.3,0659.4,31.0
2021-06-30T06:46:00Z,00000200,00000000,0000.08,0000.02,0000.38,0000.33,-000.39,-000.16,-000.37,0000.00,-000.01,17.7,24.0,03.4,02.3,0659.5,31.0
2021-06-30T06:47:00Z,00000200,00000000,0000.39,-000.16,0000.10,0000.08,-000.14,0000.07,0000.16,0000.22,0000.33,17.7,24.0,03.4,02.3,0659.6,31.0
2021-06-30T06:48:00Z,00000200,00000000,0000.66,0000.00,0000.13,0000.01,0000.10,-000.23,0000.18,0000.01,-000.02,17.7,24.0,03.4,02.3,0659.6,31.0
2021-06-30T06:49:00Z,00000200,00000000,-000.16,0000.28,0000.08,-000.04,0000.06,0000.02,0000.07,0000.21,0000.00,17.7,24.0,03.5,02.4,0659.7,31.0
2021-06-30T06:50:00Z,00000200,00000000,0000.40,0000.12,0000.39,0000.33,0000.05,0000.15,0000.11,-000.05,-000.21,17.8,24.1,03.5,02.4,0659.7,31.0
2021-06-30T06:51:00Z,00000200,00000000,-000.04,0000.08,0000.31,0000.36,0000.22,-000.04,-000.17,0000.36,0000.47,17.9,24.1,03.4,02.3,0659.7,31.1
2021-06-30T06:52:00Z,00000200,00000000,-000.27,-000.17,0000.26,0000.17,-000.07,0000.06,0000.04,-000.40,-000.21,17.9,24.1,03.5,02.4,0659.5,31.1
2021-06-30T06:53:00Z,00000200,00000000,0000.04,-000.15,0000.37,-000.11,-000.06,0000.20,-000.05,-000.08,0000.01,18.0,24.2,03.5,02.4,0659.5,31.1
2021-06-30T06:54:00Z,00000200,00000000,0000.09,0000.16,0000.21,-000.14,-000.00,0000.17,-000.01,-000.14,-000.26,18.0,24.2,03.4,02.3,0659.6,31.1
2021-06-30T06:55:00Z,00000200,00000000,-000.05,0000.02,0000.41,0000.17,0000.01,0000.19,-000.13,0000.13,-000.07,17.9,24.2,03.4,02.3,0659.6,31.1
2021-06-30T06:56:00Z,00000200,00000000,0000.29,0000.21,0000.10,0000.20,-000.03,-000.09,0000.10,-000.13,-000.02,17.9,24.2,03.5,02.3,0659.6,31.0
2021-06-30T06:57:00Z,00000200,40000000,,,,,,,-000.22,-000.04,-000.01,17.9,24.2,03.2,02.2,0659.7,31.0
2021-06-30T06:58:00Z,00000200,60000000,,,,,,,0000.33,0000.48,0000.24,17.5,24.2,03.3,02.2,0658.7,31.0
2021-06-30T06:59:00Z,00000200,20000000,,,,,,,0000.04,-000.13,0000.17,17.5,24.3,03.3,02.2,0658.6,31.0
